SCP
0 0 0 0 0 0 0 0 0 0 0 0 0 0 0 0 0 0 0 0 0 0 0 0 0 0 0 0 0 0 0 0 0 0 0 0 0 0
0 0 0 0 0 0 0 0 0 0 0 0 0 0 0 0 0 0 0 0 0 0 0 0 0 0 0 0 0 0 0 0 0 0 0 0 0 0
0 0 0 0 0 0 0 0 0 0 0 0 0 0 0 0 0 0 0 0 0 0 0 0 0 0 0 0 0 0 0 0 0 0 0 0 0 0
0 0 0 0 0 0 0 0 0 0 0 0 0 0 0 0 0 0 0 0 0 0 0 0 0 0 0 0 0 0 0 0 0 0 0 0 0 0
0 0 0 0 0 0 0 0 0 0 0 0 0 0 0 0 0 0 0 0 0 0 0 0 0 0 0 0 0 0 0 0 0 0 0 0 0 0
0 0 0 0 0 0 0 0 0 0 0 0 0 0 0 0 0 0 0 0 0 0 0 0 0 0 0 0 0 0 0 0 0 0 0 0 0 0
0 0 0 0 0 0 0 0 0 0 0 0 0 0 0 0 0 0 0 0 0 0 0 0 0 0 0 0 0 0 0 0 0 0 0 0 0 0
0 0 0 0 0 0 0 0 0 0 0 0 0 0 0 0 0 0 0 0 0 0 0 0 0 0 0 0 0 0 0 0 0 0 0 0 0 0
0 0 0 0 0 0 0 0 0 0 0 0 0 0 0 0 0 0 0 0 0 0 0 0 0 0 0 0 0 0 0 0 0 0 0 0 0 0
0 0 0 0 0 0 0 0 0 0 0 0 0 0 0 0 0 0 0 0 0 0 0 0 0 0 0 0 0 0 0 0 0 0 0 0 0 0
0 0 0 0 0 0 0 0 0 0 0 0 0 0 0 0 0 0 0 0 0 0 0 0 0 0 0 0 0 0 0 0 0 0 0 0 0 0
0 0 0 0 0 0 0 0 0 0 0 0 0 0 0 0 0 0 0 0 0 0 0 0 0 0 0 0 0 0 0 0 0 0 0 0 0 0
0 0 0 0 0 0 0 0 0 0 0 0 0 0 0 0 0 0 0 0 0 0 0 0 0 0 0 0 0 0 0 0 0 0 0 0 0 0
0 0 0 0 0 0 0 0 0 0 0 0 0 0 0 0 0 0 0 0 0 0 0 0 0 0 0 0 0 0 0 0 0 0 0 0 0 0
0 0 0 0 0 0 0 0 0 0 0 0 0 0 0 0 0 0 0 0 0 0 0 0 0 0 0 0 0 0 0 0 0 0 0 0 0 0
0 0 0 0 0 0 0 0 0 0 0 0 0 0 0 0 0 0 0 0 0 0 0 0 0 0 0 0 0 0 0 0 0 0 0 0 0 0
0 0 0 0 0 0 0 0 0 0 0 0 0 0 0 0 0 0 0 0 0 0 0 0 0 0 0 0 -0 -0 -0 0 0 0 0 -0 -0 0
0 0 0 0 0 0 0 0 0 0 0 0 0 0 0 0 0 0 0 0 0 0 0 0 0 0 -0 -0 -0 -0 -0 -0 -0 0 -0 -0 -0 0
0 0 0 0 0 0 0 0 0 0 0 0 0 0 0 0 0 0 0 0 0 0 0 0 0 0 0 -0 -0 0 -0 -0 -0 -0 -0 -0 -0 0
0 0 0 0 0 0 0 0 0 0 0 0 0 0 0 0 0 0 0 0 0 0 0 0 0 0 0 0 -0 0 -0 -0 -0 -0 -0 0 0 0
0 0 0 0 0 0 0 0 0 0 0 0 0 0 0 0 0 0 0 0 0 0 0 0 0 0 0 0 0 0 0 0 0 0 0 0 0 0
0 0 0 0 0 0 0 0 0 0 0 0 0 0 0 0 0 0 0 0 0 0 0 0 0 0 -0 0 0 0 0 0 0 0 0 0 0 0
0 0 0 0 0 0 0 0 0 -0 -0 -0 0 0 0 0 0 0 -0 0 0 0 0 0 0 0 0 0 0 0 0 0 0 0 0 0 0 0
Wind_Speed
6 7 5 5 5 4 4 4 5 4 4 3 2 1 1 2 6 4 5 10 11 10 9 8 7 6 5 3 2 1 1 1 1 2 3 4 5 6
3 4 4 4 4 4 4 4 4 4 3 3 3 2 2 3 5 3 3 10 10 9 8 7 6 5 5 4 2 1 0 0 1 1 2 3 4 5
2 3 4 4 4 4 4 4 3 3 3 2 2 2 2 2 3 2 4 5 5 8 8 7 6 6 5 4 3 2 1 1 1 2 2 3 3 4
2 3 3 4 4 4 4 4 3 4 3 3 2 2 2 3 3 3 3 5 5 8 8 8 8 7 7 6 5 4 4 3 3 3 3 3 4 4
3 3 3 4 4 3 4 4 3 3 3 3 3 2 2 2 2 2 4 4 6 8 10 10 10 11 10 9 8 7 6 6 5 5 5 5 6 6
3 3 3 3 4 4 4 4 4 3 3 3 3 3 2 2 3 3 4 4 5 6 8 9 12 14 13 12 10 10 9 8 8 8 7 7 8 8
4 3 3 4 5 4 3 3 4 3 3 3 3 3 3 3 3 3 5 5 5 5 6 6 6 7 7 10 11 12 11 11 11 11 10 10 10 11
3 3 3 4 4 6 7 6 4 4 4 3 3 3 4 4 4 5 6 6 4 3 6 6 6 7 6 6 10 13 13 13 12 12 12 11 12 12
3 2 2 4 4 3 5 6 5 4 3 4 3 4 4 5 6 6 5 5 5 5 7 6 6 7 5 7 12 13 14 14 13 13 12 12 11 12
3 3 3 3 5 4 2 5 6 5 3 2 3 3 3 4 5 6 8 8 7 5 5 5 4 5 6 5 11 13 12 12 12 12 11 10 9 9
3 4 4 4 6 5 4 6 6 5 9 11 11 10 11 10 8 7 7 8 6 3 2 4 4 4 4 3 6 11 11 10 10 11 10 9 6 5
3 4 7 6 7 6 4 6 7 5 6 6 7 8 8 8 9 6 6 7 6 3 2 4 5 4 4 2 2 3 4 6 8 9 10 10 8 3
3 3 4 7 7 5 3 4 6 6 5 5 5 5 5 6 6 5 5 5 5 3 4 4 4 3 4 3 2 1 2 2 2 3 6 9 10 7
3 3 3 6 6 5 4 5 7 6 4 5 5 5 5 5 5 6 7 6 5 5 4 4 4 3 4 4 3 1 1 1 2 2 2 3 6 7
3 4 4 5 5 5 6 6 5 4 5 5 5 5 5 5 5 5 6 7 7 7 5 4 4 4 4 4 4 3 2 1 1 2 2 2 2 2
3 3 5 6 5 4 4 4 4 4 5 5 5 4 4 4 4 4 4 5 6 6 7 8 7 6 5 5 4 3 2 2 0 1 1 1 2 3
2 2 2 2 3 3 3 3 3 4 5 4 5 4 4 4 3 3 3 4 4 4 4 5 7 8 7 5 4 3 2 2 1 0 1 0 1 3
3 2 2 3 3 3 3 3 3 3 3 4 4 4 4 4 3 3 3 4 5 4 4 3 3 3 4 5 4 3 2 2 1 1 0 0 1 1
3 3 3 3 3 3 3 3 3 3 3 4 4 4 4 4 3 3 3 4 4 3 3 3 2 2 2 2 1 2 2 1 1 1 2 2 2 3
3 3 3 2 2 2 2 2 2 2 3 3 3 3 3 3 3 3 3 4 4 3 2 2 2 2 1 3 3 1 1 2 1 1 1 1 1 1
2 2 2 2 2 2 2 2 3 2 3 3 3 3 3 3 3 3 4 4 3 3 3 2 2 2 0 2 3 2 1 1 3 2 0 1 2 2
2 2 2 2 2 2 2 2 2 2 2 3 3 2 2 3 4 5 4 3 2 2 4 3 2 1 0 1 2 3 3 2 2 3 3 4 3 2
2 2 1 1 1 1 1 1 2 2 2 3 3 2 2 2 2 3 3 3 3 4 4 3 2 1 1 1 1 1 3 3 2 2 4 9 12 12
Wind_Direction
201 195 192 187 183 185 178 170 167 183 208 203 197 207 141 119 152 172 167 179 176 178 178 178 176 175 174 169 160 122 15 334 291 277 285 295 303 310
179 184 186 174 168 173 177 173 170 166 185 190 188 179 160 149 162 168 147 164 170 169 171 172 170 169 163 153 145 135 87 356 313 304 304 306 309 311
148 159 172 165 162 163 159 161 170 167 174 177 167 155 142 155 150 154 143 143 150 159 159 156 152 145 140 131 117 102 79 54 29 12 356 346 342 339
106 130 135 138 142 147 152 161 162 165 161 161 150 145 152 159 150 155 149 137 129 133 132 128 122 116 108 99 91 82 74 67 59 46 34 18 5 2
79 99 121 131 137 143 148 147 149 157 147 142 146 139 135 144 130 122 117 113 117 119 111 106 104 98 91 84 79 74 73 72 69 64 57 50 44 39
71 82 96 119 134 144 146 148 147 144 136 135 140 146 142 145 136 131 119 108 113 115 105 102 97 88 80 76 74 73 73 74 73 70 66 63 61 60
59 64 86 100 111 122 129 140 146 144 140 145 149 145 148 144 155 146 129 114 101 112 109 103 94 82 69 64 68 74 77 76 75 74 71 70 70 71
62 54 79 102 110 111 107 110 127 149 160 157 156 159 163 157 145 140 136 133 121 121 108 96 87 79 66 63 71 79 81 80 78 77 76 75 74 74
64 60 51 68 78 95 115 110 88 90 137 152 156 169 160 162 151 148 147 135 123 131 112 98 90 85 73 67 76 80 81 81 79 77 77 77 76 76
65 56 47 56 52 49 103 105 81 53 64 113 126 131 123 128 136 139 130 112 102 107 111 107 104 94 83 68 76 82 82 82 81 78 76 74 77 84
77 72 56 59 42 49 98 112 103 81 71 84 91 93 89 92 108 114 122 125 122 115 103 109 126 115 102 88 82 85 84 83 81 77 72 64 71 96
57 71 59 50 40 44 105 124 121 118 115 103 92 87 84 85 97 113 129 132 129 125 130 114 148 139 120 118 131 120 92 86 86 80 70 56 46 76
52 55 48 42 42 37 67 117 129 130 120 108 96 85 77 73 73 76 92 124 126 121 147 128 149 142 124 132 132 141 142 149 124 87 76 70 62 66
49 48 49 43 50 60 66 98 114 113 104 97 90 83 81 76 73 74 78 80 88 109 128 127 134 144 128 129 139 145 115 130 135 137 132 94 74 69
53 59 61 59 61 68 67 84 99 102 102 100 96 90 90 91 83 75 68 66 62 63 69 76 103 118 121 130 137 146 138 40 58 103 127 142 146 92
51 62 60 63 72 78 73 74 80 96 106 107 101 97 96 95 98 101 99 90 73 50 43 53 66 89 95 102 116 127 132 146 55 58 83 99 109 102
7 55 60 58 63 67 69 76 86 94 101 107 109 110 103 96 96 101 107 102 102 101 73 57 65 73 76 94 109 116 121 121 140 117 58 346 186 136
41 68 67 70 74 81 86 83 85 98 110 114 116 119 118 114 107 96 100 110 117 120 120 118 101 76 62 40 52 118 126 147 177 212 216 199 257 184
55 62 62 64 69 73 81 89 91 99 107 111 117 123 125 123 121 118 112 112 118 127 138 149 145 132 149 174 322 38 115 141 181 246 235 204 219 208
56 65 64 66 75 85 90 98 100 97 102 113 121 123 125 126 129 130 123 124 131 131 126 102 89 98 136 165 161 172 93 118 114 310 294 284 263 201
65 60 57 62 68 75 85 100 104 103 105 109 114 121 127 129 131 124 119 125 133 147 147 146 156 175 272 79 102 144 197 167 154 159 121 11 333 317
88 80 63 59 62 67 73 92 108 111 115 113 119 123 127 132 134 134 142 157 175 143 130 142 166 157 109 158 188 176 184 216 234 215 210 189 179 224
128 112 97 73 61 58 53 97 126 135 134 128 126 127 124 123 132 141 150 152 139 134 136 153 177 209 217 181 176 169 176 186 199 227 260 233 225 231